Torna al catalogo

CZ-6A DEB

AttivoPO
NORAD 61270·DEBRIS·🇨🇳 China

Lanciato Aug 6, 2024 da Taiyuan Satellite Launch Center

Loading…

Prossimi Passaggi (prossime 24 ore)

TLE

AggiornatoSource: Space-Track

Epoca: Sep 14, 2026, 05:54 UTC

1 61270U 24140SF  26257.24605523  .00000939  00000-0  58166-3 0  9996
2 61270  88.8194 252.1269 0143893 353.5883   6.3448 13.99450119104705

Traccia CZ-6A DEB in tempo reale con AllMySat

Download on the App Store